Tracking 21496 objects as of 1-Oct-2020
HD Live streaming from Space Station
objects crossing your sky now

SL-19 DEB

Track SL-19 DEB now!
10-day predictions


NORAD ID: 36038
Int'l Code: 2009-059C
Perigee: 707.0 km
Apogee: 720.9 km
Inclination: 98.2 °
Period: 98.9 minutes
Semi major axis: 7084 km
RCS: 0.8568 m2 (medium)
Launch date: November 2, 2009
Source: Commonwealth of Independent States (former USSR) (CIS)
Launch site: PLESETSK MISSILE AND SPACE COMPLEX (PKMTR)

Note: This is SATELLITE DEBRIS
aabbcc
Your satellite tracking list
Your tracking list is empty




NASA's NSSDC Master Catalog

Two Line Element Set (TLE):
1 36038U 09059C   20274.79786568 +.00000094 +00000-0 +31603-4 0  9994
2 36038 098.1749 105.2914 0009826 201.7329 168.8760 14.55779388579319
Source of the keplerian elements: AFSPC